Regional Weather Roundup
Issued by NWS Charleston, SC

Current Version | Previous Version | Graphics & Text | Print | Product List | Glossary On
Versions: 1 2 3 4 5 6 7 8 9 10 11 12 13 14 15 16 17 18 19 20 21 22 23 24 25 26 27 28 29 30 31 32 33 34 35 36 37 38 39 40 41 42 43 44 45 46 47 48 49 50
732
ASUS42 KCHS 260126
RWRCHS

REGIONAL WEATHER ROUNDUP
NATIONAL WEATHER SERVICE CHARLESTON SC
800 PM EST SAT FEB 25 2017

NOTE: "FAIR" INDICATES FEW OR NO CLOUDS BELOW 12,000 FEET WITH NO
SIGNIFICANT WEATHER AND/OR OBSTRUCTIONS TO VISIBILITY.

NOT ALL STATIONS ARE QUALITY CONTROLLED. USE DATA WITH CAUTION...
ESPECIALLY DEWPOINT OBSERVATIONS.

SCZ027-030-031-034>040-042>050-260200-
...SOUTHEAST SOUTH CAROLINA...

CITY           SKY/WX    TMP DP  RH WIND       PRES   REMARKS
N CHARLESTON   CLEAR     71  47  42 W13G20    29.80R
WATERFRONT PRK   N/A     67  62  84 VRB3      29.77R
MOUNT PLEASANT FAIR      66  59  77 W5        29.81R
JOHNS ISLAND   FAIR      66  59  77 SW5       29.82R
PINOPOLIS        N/A     72  46  40 W15       29.69R
MONCKS CORNER  FAIR      68  27  21 CALM      29.81R
SUMMERVILLE    FAIR      68  32  26 W12G21    29.84R
BEAUFORT MCAS  CLEAR     70  38  31 W8        29.83R
BEAUFORT ARPT  FAIR      70  37  30 W13       29.84R
HILTON HEAD IS CLEAR     72  32  23 W12       29.85R
WALTERBORO     CLEAR     66  28  24 W9        29.85R
ALLENDALE      FAIR      66  21  18 VRB6      29.86R

...SOUTHERN MIDLANDS AND PEE DEE...

CITY           SKY/WX    TMP DP  RH WIND       PRES   REMARKS
GEORGETOWN     FAIR      63  59  88 SW9       29.79R
KINGSTREE      FAIR      66  18  15 W18G26    29.80R
ORANGEBURG     CLEAR     66  19  16 W12       29.83R
BARNWELL       FAIR      64  21  19 W10G16    29.88R
AIKEN          FAIR      57  21  24 W12G22    29.91R
MANNING        FAIR      68  23  18 MISG      29.81R
COLUMBIA       CLEAR     62  22  21 W13       29.84R
SUMTER         CLEAR     64  17  16 W14G20    29.79R
FLORENCE       CLEAR     69  26  20 W13G22    29.77R
MYRTLE BEACH   CLEAR     66  61  82 S7        29.74R
N MYRTLE BEACH CLEAR     63  60  90 SW10      29.73R

$$

GAZ063-065-086>088-099>101-113>116-118-119-134>141-150-260200-
...SOUTHEAST GEORGIA...

CITY           SKY/WX    TMP DP  RH WIND       PRES   REMARKS
SAVANNAH ARPT  CLEAR     67  31  26 W8        29.85R
HUNTER AAF     CLEAR     65  42  43 W3        29.83R
FORT STEWART   CLEAR     68  31  24 W8        29.85R
STATESBORO     CLEAR     65  32  29 NW12      29.89R
SYLVANIA       CLEAR    N/A N/A N/A NW10      29.88R
CLAXTON        FAIR      64  34  32 W6        29.89R

...CSRA...CENTRAL AND FAR SOUTHEAST GEORGIA...

CITY           SKY/WX    TMP DP  RH WIND       PRES   REMARKS
THOMSON        CLEAR     60  24  25 NW5       29.96R
AUGUSTA-BUSH   CLEAR     64  18  17 NW14      29.88R
AUGUSTA-DANIEL CLEAR     63  16  16 W12G21    29.89R
SWAINSBORO     FAIR      61  25  25 NW8       29.92R
VIDALIA        PTCLDY    64  34  32 NW9       29.91R
EASTMAN        FAIR     N/A N/A N/A NW6       29.96R
HAZLEHURST     FAIR      64  32  29 CALM      29.91R
ALMA           PTCLDY    66  32  28 W6        29.90R
WAYCROSS       CLEAR     67  38  33 W6        29.91R
JESUP          FAIR      64  32  29 W6        29.90R
BAXLEY         FAIR      63  41  45 W6        29.91R
BRUNSWICK      CLEAR     70  50  49 W6        29.89R
SAINT SIMONS   CLEAR     69  58  67 W5        29.87R

$$

SCZ027-028-034-036>038-045-046-048>050-GAZ119-141-260200-
...LAKE AND SUPPLEMENTAL COASTAL OBSERVATIONS...

STATION/POSITION TIME  TEMP    WIND        PRES    WAVE   SWELL
                       AIR SEA DIR/SP/G            HT/PER HT/PER/DIR
                 (UTC) (F)     (DEG/KT/KT) (MB)    (FT/S) (FT/S/D)
WINYAH BAY       0030   66     220/  8     1007.0S
LAKE MURRAY      0020   64     270/ 17/ 23 1009.5R
ACE BASIN NERRS  0045   70     260/  3     1009.0R
FORT PULASKI     0100   71 64  290/ 10/ 12 1010.9
SAPELO ISLAND    0100   70     270/  8     1011.0

$$

ANZ835-935-AMZ111-154-330-350-352-354-370-450-454-472-260200-
...C-MAN AND BUOY OBSERVATIONS...

STATION/POSITION TIME  TEMP    WIND        PRES    WAVE   SWELL
                       AIR SEA DIR/SP/G            HT/PER HT/PER/DIR
                 (UTC) (F)     (DEG/KT/KT) (MB)    (FT/S) (FT/S/D)
BUOY 41004       0050   70 70  220/ 17/ 21 1008.3R   6/10   5/120/10
BUOY 41008       0050   67 63  210/ 10/ 10 1010.3R   3/11   3/ 80/11
FOLLY BEACH CMAN 0100   65     240/  9/ 12 1009.8R
CAPERS NEARSHORE 0108   64 62  240/ 14/ 19 1008.8R
FRIPP NEARSHORE  0108   69 62  280/ 14/ 19 1009.9R


STATION/POSITION TIME  TEMP    WIND        PRES    WAVE   SWELL
                       AIR SEA DIR/SP/G            HT/PER HT/PER/DIR
                 (UTC) (F)     (DEG/KT/KT) (MB)    (FT/S) (FT/S/D)
5E ST. MARYS GA  0100      67                N/A     3/11   2/100/11
FRYING PAN BUOY  0110   72 72  220/ 23/ 29 1007.1
BUOY 41025       0050   74 75  230/ 29/ 35 1003.6R   8/11   5/130/11
CAPE LOOKOUT NC  0100   67     230/ 17/ 28 1005.1R
BUOY 41002       0050   72 71  230/ 14/ 16 1010.6R   7/10   7/ 70/10
BUOY 41010       NOT AVBL
ST AUGUSTINE FL  0100   72 67  270/  4/  5 1012.9R


$$




USA.gov is the U.S. government's official web portal to all federal, state and local government web resources and services.